Home   Weather   Umm al-Quwain   Past weeks

Flag for United Arab Emirates Past Weather in Umm al-Quwain, Umm al-Quwain, United Arab Emirates — Yesterday and Last 2 Weeks

Now
72 °F

Clear.


Feels Like: 74 °F
Forecast: 70 / 75 °F
Wind: 9 mph from Northwest

Location: Sharjah International Airport

Current Time: Feb 25, 2017 at 1:51:58 am

Latest Report: Feb 25, 2017 at 1:00 am


Visibility: 10 mi

Pressure: 30.07 "Hg

Humidity: 73%

Dew Point: 63 °F

Location of Umm al-QuwainLocation

Past Weather in Umm al-Quwain — Graph

°F

Umm al-Quwain Temperature Yesterday

Maximum temperature yesterday: 81 °F (at 12:00 pm)
Minimum temperature yesterday: 66 °F (at 5:00 am)
Average temperature yesterday: 73 °F

High & Low Weather Summary for the Past Weeks

 TemperatureHumidityPressure
High86 °F (Feb 17, 1:00 pm)94% (Feb 18, 5:00 am)30.30 "Hg (Feb 18, 5:00 am)
Low57 °F (Feb 11, 6:00 am)24% (Feb 17, 1:00 pm)29.83 "Hg (Feb 17, 2:00 pm)
Average70 °F65%30.05 "Hg
* Reported Feb 10 12:00 am — Feb 25 12:00 am, Umm al-Quwain, Weather by CustomWeather, © 2017

Note: Actual official high and low records may vary slightly from our data, if they occured in-between our weather recording intervals... More about our weather records

Advertising

Umm al-Quwain Weather History for the Previous 24 Hours

Scroll right to see more
 ConditionsComfort  
Time TempWeatherWind HumidityBarometerVisibility
12:00 am
Sat, Feb 25
72 °FClear.6 mph69%30.07 "Hg10 mi
11:00 pm
Fri, Feb 24
72 °FClear.6 mph65%30.07 "Hg10 mi
10:00 pm75 °FClear.7 mph54%30.07 "Hg10 mi
9:00 pm75 °FClear.8 mph61%30.07 "Hg10 mi
8:00 pm73 °FPassing clouds.6 mph65%30.04 "HgN/A
7:00 pm75 °FPassing clouds.7 mph61%30.04 "HgN/A
6:00 pm75 °FPassing clouds.8 mph57%30.04 "HgN/A
5:00 pm77 °FPassing clouds.8 mph51%30.01 "HgN/A
4:00 pm79 °FLight rain. Passing clouds.10 mph48%30.01 "HgN/A
3:00 pm77 °FLight rain. Passing clouds.13 mph54%30.01 "HgN/A
2:00 pm81 °FPartly sunny.12 mph45%30.04 "HgN/A
1:00 pm81 °FPartly sunny.8 mph48%30.04 "HgN/A
12:00 pm81 °FPassing clouds.7 mph48%30.07 "HgN/A
11:00 am77 °FSunny.9 mph57%30.07 "Hg10 mi
10:00 am73 °FSunny.7 mph61%30.07 "Hg10 mi
9:00 am72 °FPassing clouds.7 mph57%30.07 "HgN/A
8:00 am68 °FPassing clouds.3 mph73%30.04 "HgN/A
7:00 am66 °FSunny.6 mph73%30.01 "Hg10 mi
6:00 am70 °FPassing clouds.12 mph60%30.01 "HgN/A
5:00 am66 °FClear.5 mph83%29.98 "Hg5 mi
4:00 am68 °FClear.3 mph73%29.98 "Hg5 mi
3:00 am68 °FClear.5 mph78%29.95 "Hg5 mi
2:00 am70 °FClear.8 mph73%29.98 "Hg5 mi
1:00 am70 °FPassing clouds.5 mph73%29.98 "HgN/A
Weather by CustomWeather, © 2017

See weather overviewHow to use our weather pages